Time,TemperatureF,DewpointF,PressureIn,WindDirection,WindDirectionDegrees,WindSpeedMPH,WindSpeedGustMPH,Humidity,HourlyPrecipIn,Conditions,Clouds,dailyrainin,SoftwareType,DateUTC
2013-03-06 00:02:00,38.0,28.0,29.64,South,179,6.0,13.0,68,-99.99,,,-99.99,,2013-03-06 05:02:00,
2013-03-06 00:11:00,37.0,30.0,29.65,South,187,7.0,13.0,76,-99.99,,,-99.99,,2013-03-06 05:11:00,
2013-03-06 00:22:00,37.0,30.0,29.65,South,187,7.0,13.0,76,-99.99,,,-99.99,,2013-03-06 05:22:00,
2013-03-06 00:32:00,35.0,31.0,29.65,South,181,5.0,11.0,86,-99.99,,,-99.99,,2013-03-06 05:32:00,
2013-03-06 00:42:00,35.0,31.0,29.65,South,181,5.0,11.0,86,-99.99,,,-99.99,,2013-03-06 05:42:00,
2013-03-06 00:52:00,34.0,32.0,29.65,East,80,3.0,10.0,92,-99.99,,,-99.99,,2013-03-06 05:52:00,
2013-03-06 01:02:00,33.0,32.0,29.65,East,91,3.0,10.0,95,-99.99,,,-99.99,,2013-03-06 06:02:00,
2013-03-06 01:11:00,33.0,32.0,29.65,East,91,3.0,10.0,95,-99.99,,,-99.99,,2013-03-06 06:11:00,
2013-03-06 01:22:00,32.0,31.0,29.65,ESE,108,4.0,9.0,96,-99.99,,,-99.99,,2013-03-06 06:22:00,
2013-03-06 01:32:00,32.0,31.0,29.66,East,96,4.0,10.0,97,-99.99,,,-99.99,,2013-03-06 06:32:00,
2013-03-06 01:42:00,32.0,31.0,29.66,East,96,4.0,10.0,97,-99.99,,,-99.99,,2013-03-06 06:42:00,
2013-03-06 01:52:00,32.0,32.0,29.65,East,96,4.0,9.0,98,-99.99,,,-99.99,,2013-03-06 06:52:00,
2013-03-06 02:01:00,32.0,32.0,29.66,East,93,5.0,11.0,98,-99.99,,,-99.99,,2013-03-06 07:01:00,
2013-03-06 02:11:00,32.0,32.0,29.66,East,93,5.0,11.0,98,-99.99,,,-99.99,,2013-03-06 07:11:00,
2013-03-06 02:22:00,32.0,32.0,29.66,SE,132,2.0,7.0,98,-99.99,,,-99.99,,2013-03-06 07:22:00,
2013-03-06 02:32:00,32.0,32.0,29.66,SE,134,2.0,9.0,98,-99.99,,,-99.99,,2013-03-06 07:32:00,
2013-03-06 02:42:00,32.0,32.0,29.66,SE,134,2.0,9.0,98,-99.99,,,-99.99,,2013-03-06 07:42:00,
2013-03-06 02:52:00,32.0,32.0,29.67,ESE,103,3.0,8.0,99,-99.99,,,-99.99,,2013-03-06 07:52:00,
2013-03-06 03:01:00,32.0,32.0,29.67,ESE,105,3.0,10.0,99,-99.99,,,-99.99,,2013-03-06 08:01:00,
2013-03-06 03:11:00,32.0,32.0,29.67,ESE,105,3.0,10.0,99,-99.99,,,-99.99,,2013-03-06 08:11:00,
2013-03-06 03:21:00,32.0,32.0,29.67,ENE,77,1.0,6.0,99,-99.99,,,-99.99,,2013-03-06 08:21:00,
2013-03-06 03:32:00,32.0,32.0,29.68,ESE,105,0.0,6.0,99,-99.99,,,-99.99,,2013-03-06 08:32:00,
2013-03-06 03:42:00,32.0,32.0,29.68,ESE,105,0.0,6.0,99,-99.99,,,-99.99,,2013-03-06 08:42:00,
2013-03-06 03:52:00,32.0,32.0,29.69,East,100,2.0,8.0,99,-99.99,,,-99.99,,2013-03-06 08:52:00,
2013-03-06 04:01:00,32.0,32.0,29.69,ESE,110,0.0,4.0,99,-99.99,,,-99.99,,2013-03-06 09:01:00,
2013-03-06 04:12:00,32.0,32.0,29.69,ESE,110,0.0,4.0,99,-99.99,,,-99.99,,2013-03-06 09:12:00,
2013-03-06 04:21:00,32.0,32.0,29.70,ESE,105,0.0,5.0,100,-99.99,,,-99.99,,2013-03-06 09:21:00,
2013-03-06 04:32:00,32.0,32.0,29.71,SSE,165,2.0,6.0,100,-99.99,,,-99.99,,2013-03-06 09:32:00,
2013-03-06 04:42:00,32.0,32.0,29.71,SSE,165,2.0,6.0,100,-99.99,,,-99.99,,2013-03-06 09:42:00,
2013-03-06 04:52:00,32.0,32.0,29.72,SE,141,1.0,4.0,100,-99.99,,,-99.99,,2013-03-06 09:52:00,
2013-03-06 05:01:00,32.0,32.0,29.73,East,86,1.0,5.0,100,-99.99,,,-99.99,,2013-03-06 10:01:00,
2013-03-06 05:11:00,32.0,32.0,29.73,East,86,1.0,5.0,100,-99.99,,,-99.99,,2013-03-06 10:11:00,
2013-03-06 05:22:00,32.0,32.0,29.73,East,86,1.0,5.0,100,-99.99,,,-99.99,,2013-03-06 10:22:00,
2013-03-06 05:32:00,32.0,32.0,29.74,North,0,0.0,0.0,100,-99.99,,,-99.99,,2013-03-06 10:32:00,
2013-03-06 05:42:00,32.0,32.0,29.74,North,0,0.0,0.0,100,-99.99,,,-99.99,,2013-03-06 10:42:00,
2013-03-06 05:52:00,32.0,32.0,29.75,North,0,0.0,0.0,100,-99.99,,,-99.99,,2013-03-06 10:52:00,
2013-03-06 06:02:00,32.0,32.0,29.76,North,0,0.0,0.0,100,-99.99,,,-99.99,,2013-03-06 11:02:00,
2013-03-06 06:11:00,32.0,32.0,29.76,North,0,0.0,0.0,100,-99.99,,,-99.99,,2013-03-06 11:11:00,
2013-03-06 06:22:00,32.0,32.0,29.76,North,0,0.0,0.0,100,-99.99,,,-99.99,,2013-03-06 11:22:00,
2013-03-06 06:32:00,32.0,32.0,29.77,North,0,0.0,0.0,100,-99.99,,,-99.99,,2013-03-06 11:32:00,
2013-03-06 06:42:00,32.0,32.0,29.77,North,0,0.0,0.0,100,-99.99,,,-99.99,,2013-03-06 11:42:00,
2013-03-06 06:52:00,32.0,32.0,29.77,North,0,0.0,0.0,100,-99.99,,,-99.99,,2013-03-06 11:52:00,
2013-03-06 07:02:00,32.0,32.0,29.78,North,0,0.0,0.0,100,-99.99,,,-99.99,,2013-03-06 12:02:00,
2013-03-06 07:11:00,32.0,32.0,29.78,North,0,0.0,0.0,100,-99.99,,,-99.99,,2013-03-06 12:11:00,
2013-03-06 07:22:00,32.0,32.0,29.79,North,0,0.0,0.0,100,-99.99,,,-99.99,,2013-03-06 12:22:00,
2013-03-06 07:33:00,32.0,32.0,29.80,East,97,2.0,8.0,100,-99.99,,,-99.99,,2013-03-06 12:33:00,
2013-03-06 07:42:00,32.0,32.0,29.80,East,97,2.0,8.0,100,-99.99,,,-99.99,,2013-03-06 12:42:00,
2013-03-06 07:52:00,32.0,32.0,29.81,North,0,0.0,0.0,100,-99.99,,,-99.99,,2013-03-06 12:52:00,
2013-03-06 08:02:00,32.0,32.0,29.81,North,0,0.0,0.0,100,-99.99,,,-99.99,,2013-03-06 13:02:00,
2013-03-06 08:12:00,32.0,32.0,29.81,North,0,0.0,0.0,100,-99.99,,,-99.99,,2013-03-06 13:12:00,
2013-03-06 08:22:00,32.0,32.0,29.83,North,0,0.0,0.0,100,-99.99,,,-99.99,,2013-03-06 13:22:00,
2013-03-06 08:32:00,32.0,32.0,29.84,North,0,0.0,0.0,100,-99.99,,,-99.99,,2013-03-06 13:32:00,
2013-03-06 08:42:00,32.0,32.0,29.84,North,0,0.0,0.0,100,-99.99,,,-99.99,,2013-03-06 13:42:00,
2013-03-06 08:52:00,32.0,32.0,29.85,North,0,0.0,0.0,100,-99.99,,,-99.99,,2013-03-06 13:52:00,
2013-03-06 09:01:00,32.0,32.0,29.85,North,0,0.0,0.0,100,-99.99,,,-99.99,,2013-03-06 14:01:00,
2013-03-06 09:11:00,32.0,32.0,29.85,North,0,0.0,0.0,100,-99.99,,,-99.99,,2013-03-06 14:11:00,
2013-03-06 09:22:00,32.0,32.0,29.86,ENE,63,0.0,4.0,100,-99.99,,,-99.99,,2013-03-06 14:22:00,
2013-03-06 09:32:00,32.0,32.0,29.87,North,0,0.0,0.0,100,-99.99,,,-99.99,,2013-03-06 14:32:00,
2013-03-06 09:42:00,32.0,32.0,29.87,North,0,0.0,0.0,100,-99.99,,,-99.99,,2013-03-06 14:42:00,
2013-03-06 09:53:00,33.0,33.0,29.87,NE,41,0.0,3.0,100,-99.99,,,-99.99,,2013-03-06 14:53:00,
2013-03-06 10:02:00,32.0,32.0,29.88,North,0,0.0,0.0,100,-99.99,,,-99.99,,2013-03-06 15:02:00,
2013-03-06 10:11:00,32.0,32.0,29.88,North,0,0.0,0.0,100,-99.99,,,-99.99,,2013-03-06 15:11:00,
2013-03-06 10:22:00,32.0,32.0,29.89,NNE,25,0.0,7.0,100,-99.99,,,-99.99,,2013-03-06 15:22:00,
2013-03-06 10:32:00,33.0,33.0,29.90,ENE,73,0.0,6.0,100,-99.99,,,-99.99,,2013-03-06 15:32:00,
2013-03-06 10:42:00,33.0,33.0,29.90,ENE,73,0.0,6.0,100,-99.99,,,-99.99,,2013-03-06 15:42:00,
2013-03-06 10:52:00,33.0,33.0,29.90,ENE,73,0.0,6.0,100,-99.99,,,-99.99,,2013-03-06 15:52:00,
2013-03-06 11:02:00,33.0,33.0,29.90,ENE,73,0.0,6.0,100,-99.99,,,-99.99,,2013-03-06 16:02:00,
2013-03-06 11:12:00,33.0,33.0,29.90,ENE,73,0.0,6.0,100,-99.99,,,-99.99,,2013-03-06 16:12:00,
2013-03-06 11:21:00,34.0,34.0,29.91,ENE,59,1.0,5.0,100,-99.99,,,-99.99,,2013-03-06 16:21:00,
2013-03-06 11:32:00,35.0,35.0,29.92,North,359,3.0,7.0,100,-99.99,,,-99.99,,2013-03-06 16:32:00,
2013-03-06 11:42:00,35.0,35.0,29.92,North,359,3.0,7.0,100,-99.99,,,-99.99,,2013-03-06 16:42:00,
2013-03-06 11:52:00,36.0,36.0,29.93,North,7,2.0,8.0,100,-99.99,,,-99.99,,2013-03-06 16:52:00,
2013-03-06 12:01:00,36.0,36.0,29.93,North,7,2.0,8.0,100,-99.99,,,-99.99,,2013-03-06 17:01:00,
2013-03-06 12:11:00,36.0,36.0,29.93,North,7,2.0,8.0,100,-99.99,,,-99.99,,2013-03-06 17:11:00,
2013-03-06 12:22:00,39.0,38.0,29.93,NE,38,3.0,9.0,98,-99.99,,,-99.99,,2013-03-06 17:22:00,
2013-03-06 12:32:00,38.0,37.0,29.93,NE,42,3.0,8.0,98,-99.99,,,-99.99,,2013-03-06 17:32:00,
2013-03-06 12:42:00,38.0,37.0,29.93,NE,42,3.0,8.0,98,-99.99,,,-99.99,,2013-03-06 17:42:00,
2013-03-06 12:53:00,39.0,38.0,29.94,NE,55,3.0,10.0,97,-99.99,,,-99.99,,2013-03-06 17:53:00,
2013-03-06 13:02:00,40.0,38.0,29.94,NE,55,3.0,9.0,94,-99.99,,,-99.99,,2013-03-06 18:02:00,
2013-03-06 13:28:00,40.0,37.0,29.94,ENE,59,4.0,9.0,89,-99.99,,,-99.99,,2013-03-06 18:28:00,
2013-03-06 13:42:00,40.0,36.0,29.94,ESE,115,5.0,12.0,86,-99.99,,,-99.99,,2013-03-06 18:42:00,
2013-03-06 13:53:00,41.0,36.0,29.94,SE,127,1.0,5.0,83,-99.99,,,-99.99,,2013-03-06 18:53:00,
2013-03-06 14:02:00,40.0,34.0,29.95,NE,45,6.0,13.0,79,-99.99,,,-99.99,,2013-03-06 19:02:00,
2013-03-06 14:11:00,40.0,34.0,29.95,NE,45,6.0,13.0,79,-99.99,,,-99.99,,2013-03-06 19:11:00,
2013-03-06 14:22:00,40.0,34.0,29.95,NE,48,3.0,10.0,78,-99.99,,,-99.99,,2013-03-06 19:22:00,
2013-03-06 14:32:00,40.0,34.0,29.96,NNE,24,2.0,7.0,78,-99.99,,,-99.99,,2013-03-06 19:32:00,
2013-03-06 14:43:00,40.0,34.0,29.96,NNE,24,2.0,7.0,78,-99.99,,,-99.99,,2013-03-06 19:43:00,
2013-03-06 14:53:00,40.0,33.0,29.96,East,89,1.0,6.0,77,-99.99,,,-99.99,,2013-03-06 19:53:00,
2013-03-06 15:02:00,40.0,33.0,29.96,East,87,2.0,6.0,76,-99.99,,,-99.99,,2013-03-06 20:02:00,
2013-03-06 15:12:00,40.0,33.0,29.96,East,87,2.0,6.0,76,-99.99,,,-99.99,,2013-03-06 20:12:00,
2013-03-06 15:22:00,40.0,33.0,29.97,East,91,4.0,7.0,76,-99.99,,,-99.99,,2013-03-06 20:22:00,
2013-03-06 15:32:00,40.0,33.0,29.97,East,91,4.0,7.0,76,-99.99,,,-99.99,,2013-03-06 20:32:00,
2013-03-06 15:42:00,40.0,33.0,29.97,East,91,4.0,7.0,76,-99.99,,,-99.99,,2013-03-06 20:42:00,
2013-03-06 15:53:00,40.0,33.0,29.98,NE,53,4.0,9.0,75,-99.99,,,-99.99,,2013-03-06 20:53:00,
2013-03-06 16:02:00,40.0,33.0,29.98,ENE,73,1.0,3.0,75,-99.99,,,-99.99,,2013-03-06 21:02:00,
2013-03-06 16:12:00,40.0,33.0,29.98,ENE,73,1.0,3.0,75,-99.99,,,-99.99,,2013-03-06 21:12:00,
2013-03-06 16:22:00,40.0,33.0,29.99,NNE,27,2.0,6.0,75,-99.99,,,-99.99,,2013-03-06 21:22:00,
2013-03-06 16:32:00,40.0,33.0,29.99,NE,49,1.0,5.0,75,-99.99,,,-99.99,,2013-03-06 21:32:00,
2013-03-06 16:42:00,40.0,33.0,29.99,NE,49,1.0,5.0,75,-99.99,,,-99.99,,2013-03-06 21:42:00,
2013-03-06 16:52:00,40.0,33.0,30.00,NE,52,1.0,6.0,75,-99.99,,,-99.99,,2013-03-06 21:52:00,
2013-03-06 17:02:00,40.0,33.0,30.01,NNE,28,0.0,3.0,76,-99.99,,,-99.99,,2013-03-06 22:02:00,
2013-03-06 17:11:00,40.0,33.0,30.01,NNE,28,0.0,3.0,76,-99.99,,,-99.99,,2013-03-06 22:11:00,
2013-03-06 17:22:00,40.0,33.0,30.01,NE,53,2.0,6.0,75,-99.99,,,-99.99,,2013-03-06 22:22:00,
2013-03-06 17:32:00,40.0,32.0,30.02,NNE,21,2.0,6.0,74,-99.99,,,-99.99,,2013-03-06 22:32:00,
2013-03-06 17:42:00,40.0,32.0,30.02,NNE,21,2.0,6.0,74,-99.99,,,-99.99,,2013-03-06 22:42:00,
2013-03-06 17:52:00,40.0,32.0,30.03,NNE,24,1.0,6.0,74,-99.99,,,-99.99,,2013-03-06 22:52:00,
2013-03-06 18:01:00,40.0,32.0,30.03,NNE,27,2.0,5.0,74,-99.99,,,-99.99,,2013-03-06 23:01:00,
2013-03-06 18:11:00,40.0,32.0,30.03,NNE,27,2.0,5.0,74,-99.99,,,-99.99,,2013-03-06 23:11:00,
2013-03-06 18:22:00,39.0,31.0,30.03,North,359,2.0,7.0,74,-99.99,,,-99.99,,2013-03-06 23:22:00,
2013-03-06 18:32:00,39.0,31.0,30.03,NNE,24,2.0,8.0,72,-99.99,,,-99.99,,2013-03-06 23:32:00,
2013-03-06 18:42:00,39.0,31.0,30.03,NNW,347,1.0,6.0,72,-99.99,,,-99.99,,2013-03-06 23:42:00,
2013-03-06 18:52:00,39.0,31.0,30.03,NNW,347,1.0,6.0,72,-99.99,,,-99.99,,2013-03-06 23:52:00,
2013-03-06 19:02:00,39.0,31.0,30.04,NE,41,0.0,1.0,74,-99.99,,,-99.99,,2013-03-07 00:02:00,
2013-03-06 19:11:00,39.0,31.0,30.04,NE,41,0.0,1.0,74,-99.99,,,-99.99,,2013-03-07 00:11:00,
2013-03-06 19:21:00,39.0,31.0,30.04,NE,41,0.0,1.0,74,-99.99,,,-99.99,,2013-03-07 00:21:00,
2013-03-06 19:32:00,38.0,31.0,30.05,North,0,0.0,0.0,76,-99.99,,,-99.99,,2013-03-07 00:32:00,
2013-03-06 19:42:00,38.0,31.0,30.05,North,0,0.0,0.0,76,-99.99,,,-99.99,,2013-03-07 00:42:00,
2013-03-06 19:52:00,38.0,31.0,30.06,North,0,0.0,0.0,76,-99.99,,,-99.99,,2013-03-07 00:52:00,
2013-03-06 20:02:00,38.0,31.0,30.06,North,0,0.0,0.0,75,-99.99,,,-99.99,,2013-03-07 01:02:00,
2013-03-06 20:11:00,38.0,31.0,30.06,North,0,0.0,0.0,75,-99.99,,,-99.99,,2013-03-07 01:11:00,
2013-03-06 20:21:00,38.0,31.0,30.07,NNE,18,0.0,2.0,76,-99.99,,,-99.99,,2013-03-07 01:21:00,
2013-03-06 20:32:00,38.0,31.0,30.07,North,0,0.0,0.0,76,-99.99,,,-99.99,,2013-03-07 01:32:00,
2013-03-06 20:42:00,38.0,31.0,30.07,North,0,0.0,0.0,76,-99.99,,,-99.99,,2013-03-07 01:42:00,
2013-03-06 20:52:00,38.0,31.0,30.08,North,0,0.0,0.0,77,-99.99,,,-99.99,,2013-03-07 01:52:00,
2013-03-06 21:01:00,38.0,31.0,30.08,North,0,0.0,0.0,77,-99.99,,,-99.99,,2013-03-07 02:01:00,
2013-03-06 21:11:00,38.0,31.0,30.08,North,0,0.0,0.0,77,-99.99,,,-99.99,,2013-03-07 02:11:00,
2013-03-06 21:21:00,38.0,31.0,30.08,East,82,2.0,6.0,76,-99.99,,,-99.99,,2013-03-07 02:21:00,
2013-03-06 21:32:00,38.0,31.0,30.08,NNE,13,0.0,2.0,75,-99.99,,,-99.99,,2013-03-07 02:32:00,
2013-03-06 21:41:00,38.0,31.0,30.08,NNE,13,0.0,2.0,75,-99.99,,,-99.99,,2013-03-07 02:41:00,
2013-03-06 21:52:00,38.0,31.0,30.08,NNE,13,0.0,2.0,75,-99.99,,,-99.99,,2013-03-07 02:52:00,
2013-03-06 22:02:00,38.0,31.0,30.08,ENE,76,0.0,1.0,76,-99.99,,,-99.99,,2013-03-07 03:02:00,
2013-03-06 22:11:00,38.0,31.0,30.08,NNE,27,0.0,2.0,77,-99.99,,,-99.99,,2013-03-07 03:11:00,
2013-03-06 22:22:00,38.0,31.0,30.08,NNE,27,0.0,2.0,77,-99.99,,,-99.99,,2013-03-07 03:22:00,
2013-03-06 22:32:00,37.0,30.0,30.08,North,0,0.0,0.0,77,-99.99,,,-99.99,,2013-03-07 03:32:00,
2013-03-06 22:42:00,37.0,30.0,30.08,North,0,0.0,0.0,77,-99.99,,,-99.99,,2013-03-07 03:42:00,
2013-03-06 22:52:00,38.0,32.0,30.08,North,0,0.0,0.0,78,-99.99,,,-99.99,,2013-03-07 03:52:00,
2013-03-06 23:01:00,37.0,30.0,30.08,NW,309,0.0,4.0,77,-99.99,,,-99.99,,2013-03-07 04:01:00,
2013-03-06 23:12:00,37.0,30.0,30.08,NW,309,0.0,4.0,77,-99.99,,,-99.99,,2013-03-07 04:12:00,
2013-03-06 23:22:00,37.0,31.0,30.09,North,0,0.0,0.0,79,-99.99,,,-99.99,,2013-03-07 04:22:00,
2013-03-06 23:32:00,37.0,31.0,30.09,North,0,0.0,0.0,79,-99.99,,,-99.99,,2013-03-07 04:32:00,
2013-03-06 23:42:00,37.0,31.0,30.09,North,0,0.0,0.0,79,-99.99,,,-99.99,,2013-03-07 04:42:00,
2013-03-06 23:52:00,37.0,31.0,30.08,North,0,0.0,0.0,78,-99.99,,,-99.99,,2013-03-07 04:52:00,